Pittsfield, IL

2:23 AM CDT on April 30, 2017 (GMT -0500)
Pittsfield Penstone Municipal

Weather History for KPPQ - April, 2013

Change the Weather History Date:

Wednesday, April 17, 2013

  Actual Average (KUIN) Record (KUIN)
Temperature  
Mean Temperature 54 °F -  
Max Temperature 61 °F 65 °F 87 °F (1914)
Min Temperature 46 °F 44 °F 22 °F (1907)
Degree Days  
Heating Degree Days 12    
Growing Degree Days 4 (Base 50)    
Moisture  
Dew Point 48 °F    
Average Humidity 88    
Maximum Humidity 95    
Minimum Humidity 73    
Precipitation  
Precipitation 0.06 in - - ()
Sea Level Pressure  
Sea Level Pressure 29.96 in    
Wind  
Wind Speed 10 mph (ENE)    
Max Wind Speed 21 mph    
Max Gust Speed 29 mph    
Visibility 6 miles    
Events Fog , Rain , Thunderstorm    
Averages and records for this station are not official NWS values.
T = Trace of Precipitation, MM = Missing Value Source: NWS Daily Summary

Daily Weather History Graph

Daily Weather History Graph

Search for Another Location

Airport or City:

Trip Planner

Search our weather history database for the weather conditions in past years. The results will help you decide how hot, cold, wet, or windy it might be!

Date:

Astronomy

Apr. 17, 2013 Rise Set
Actual Time 6:22 AM CDT 7:43 PM CDT
Civil Twilight 5:54 AM CDT 8:11 PM CDT
Nautical Twilight 5:20 AM CDT 8:45 PM CDT
Astronomical Twilight 4:45 AM CDT 9:20 PM CDT
Moon 11:36 AM CDT (4/17) 1:20 AM CDT (4/17)
Length of Visible Light 14h 17m
Length of Day
13h 21m
Waxing Crescent, 42% of the Moon is Illuminated
Apr 17
Waxing Crescent
Apr 18
First Quarter
Apr 25
Full
May 2
Last Quarter
May 9
New

Hourly Weather History & Observations

Time (CDT) Temp. Windchill Dew Point Humidity Pressure Visibility Wind Dir Wind Speed Gust Speed Precip Events Conditions
12:15 AM 50.0 °F - 42.4 °F 75% 30.15 in 10.0 mi ENE 11.5 mph - N/A   Overcast
12:35 AM 50.2 °F - 42.8 °F 76% 30.16 in 10.0 mi ENE 9.2 mph - N/A Thunderstorm Overcast
12:55 AM 50.2 °F - 43.2 °F 77% 30.16 in 10.0 mi ENE 9.2 mph - N/A   Overcast
1:15 AM 50.0 °F - 43.2 °F 77% 30.16 in 10.0 mi ENE 8.1 mph - N/A   Light Drizzle
1:35 AM 50.0 °F - 43.5 °F 78% 30.15 in 10.0 mi NNE 8.1 mph - N/A Rain , Thunderstorm Light Thunderstorms and Rain
1:55 AM 50.0 °F - 43.7 °F 79% 30.15 in 10.0 mi NE 6.9 mph - N/A   Overcast
2:15 AM 50.0 °F - 43.3 °F 78% 30.15 in 10.0 mi NE 8.1 mph - N/A Rain Light Rain
2:35 AM 50.0 °F - 42.8 °F 76% 30.13 in 10.0 mi NE 10.4 mph - N/A   Overcast
2:55 AM 50.0 °F - 41.9 °F 74% 30.13 in 10.0 mi ENE 11.5 mph 17.3 mph N/A   Overcast
3:15 AM 49.5 °F - 41.0 °F 73% 30.13 in 10.0 mi ENE 11.5 mph 18.4 mph N/A   Overcast
3:35 AM 48.6 °F - 41.7 °F 77% 30.13 in 10.0 mi ENE 13.8 mph 17.3 mph N/A Rain Light Rain
3:55 AM 48.6 °F - 41.2 °F 76% 30.13 in 10.0 mi East 8.1 mph - N/A   Overcast
4:15 AM 48.4 °F - 41.7 °F 78% 30.12 in 10.0 mi East 9.2 mph 17.3 mph N/A   Overcast
4:35 AM 48.4 °F - 41.7 °F 78% 30.11 in 10.0 mi ENE 12.7 mph - N/A   Overcast
4:55 AM 48.2 °F - 41.9 °F 79% 30.10 in 10.0 mi ENE 10.4 mph - N/A   Overcast
5:15 AM 47.7 °F - 42.1 °F 81% 30.09 in 10.0 mi ENE 9.2 mph - N/A   Overcast
5:35 AM 47.5 °F - 42.4 °F 83% 30.09 in 10.0 mi ENE 9.2 mph 18.4 mph N/A   Overcast
5:55 AM 47.7 °F - 42.3 °F 82% 30.09 in 10.0 mi ENE 11.5 mph 17.3 mph N/A   Overcast
6:15 AM 47.5 °F - 42.6 °F 83% 30.09 in 10.0 mi ENE 11.5 mph 19.6 mph N/A Thunderstorm Overcast
6:35 AM 46.8 °F - 43.2 °F 87% 30.09 in 5.0 mi ENE 13.8 mph 17.3 mph N/A   Light Drizzle
6:55 AM 46.4 °F 41.9 °F 43.3 °F 89% 30.09 in 5.0 mi East 9.2 mph - N/A   Overcast
7:15 AM 46.2 °F 41.2 °F 43.7 °F 91% 30.09 in 2.5 mi East 10.4 mph 19.6 mph N/A   Overcast
7:35 AM 46.2 °F 41.2 °F 43.9 °F 92% 30.08 in 2.0 mi East 10.4 mph 17.3 mph N/A   Overcast
7:55 AM 46.2 °F 41.7 °F 44.2 °F 93% 30.08 in 1.8 mi ENE 9.2 mph - N/A   Overcast
8:15 AM 46.4 °F 41.5 °F 44.6 °F 93% 30.08 in 1.8 mi ENE 10.4 mph - N/A   Overcast
8:35 AM 46.8 °F - 45.0 °F 93% 30.06 in 2.5 mi East 11.5 mph 17.3 mph N/A   Overcast
8:55 AM 48.2 °F - 46.4 °F 93% 30.04 in 3.0 mi East 11.5 mph 17.3 mph N/A   Overcast
9:15 AM 47.7 °F - 45.9 °F 93% 30.04 in 1.2 mi ESE 9.2 mph - N/A   Overcast
9:35 AM 48.2 °F - 46.4 °F 93% 30.05 in 1.0 mi ESE 11.5 mph - N/A   Overcast
9:55 AM 48.6 °F - 46.9 °F 94% 30.04 in 1.0 mi East 9.2 mph - N/A   Overcast
10:15 AM 49.1 °F - 47.5 °F 94% 30.01 in 0.8 mi ESE 11.5 mph - N/A   Overcast
10:35 AM 49.8 °F - 48.2 °F 94% 30.01 in 0.5 mi ESE 9.2 mph - N/A Fog Fog
10:55 AM 50.5 °F - 49.1 °F 95% 30.01 in 0.5 mi ESE 9.2 mph - N/A Fog Fog
11:15 AM 51.4 °F - 50.0 °F 95% 30.01 in 0.5 mi ESE 8.1 mph - N/A Fog Fog
11:35 AM 52.5 °F - 51.1 °F 95% 30.00 in 0.8 mi ESE 8.1 mph - N/A   Overcast
11:55 AM 53.4 °F - 52.0 °F 95% 29.97 in 0.5 mi ESE 11.5 mph - N/A Fog Fog
12:15 PM 54.5 °F - 53.1 °F 95% 29.97 in 0.8 mi SE 9.2 mph - N/A   Overcast
12:35 PM 55.9 °F - 54.3 °F 94% 29.96 in 1.2 mi SE 9.2 mph - N/A   Overcast
12:55 PM 57.7 °F - 56.1 °F 94% 29.94 in 1.5 mi SE 9.2 mph - N/A   Overcast
1:15 PM 59.7 °F - 57.6 °F 93% 29.92 in 2.0 mi SE 9.2 mph - N/A   Overcast
1:35 PM 61.2 °F - 58.3 °F 90% 29.92 in 2.5 mi SE 4.6 mph - N/A Thunderstorm Overcast
1:55 PM 61.0 °F - 57.9 °F 90% 29.92 in 2.5 mi Calm Calm - N/A   Overcast
2:15 PM 60.3 °F - 57.0 °F 89% 29.93 in 2.5 mi North 9.2 mph - N/A   Overcast
2:35 PM 58.1 °F - 55.6 °F 91% 29.91 in 2.0 mi NNE 9.2 mph - N/A   Overcast
2:55 PM 57.4 °F - 55.2 °F 92% 29.91 in 1.8 mi NNE 9.2 mph - N/A   Overcast
3:35 PM 52.7 °F - 50.5 °F 92% 29.90 in 1.5 mi NNE 18.4 mph 23.0 mph N/A Thunderstorm Overcast
3:55 PM 51.3 °F - 49.3 °F 93% 29.89 in 4.0 mi NNE 15.0 mph 21.9 mph N/A   Overcast
4:15 PM 49.6 °F - 47.3 °F 92% 29.92 in 7.0 mi North 17.3 mph 24.2 mph N/A   Overcast
4:35 PM 48.4 °F - 46.0 °F 92% 29.90 in 5.0 mi NNE 20.7 mph 25.3 mph N/A   Overcast
4:55 PM 49.3 °F - 46.8 °F 91% 29.87 in 10.0 mi NE 19.6 mph 23.0 mph N/A   Overcast
5:15 PM 50.4 °F - 47.5 °F 90% 29.86 in 10.0 mi NE 17.3 mph 23.0 mph N/A   Overcast
5:35 PM 50.9 °F - 48.0 °F 90% 29.83 in 10.0 mi ENE 16.1 mph 20.7 mph N/A Thunderstorm Overcast
5:55 PM 52.0 °F - 48.9 °F 89% 29.81 in 10.0 mi ENE 15.0 mph - N/A   Overcast
6:15 PM 52.9 °F - 49.6 °F 89% 29.80 in 10.0 mi ENE 12.7 mph - N/A   Overcast
6:35 PM 53.6 °F - 50.2 °F 88% 29.79 in 10.0 mi East 11.5 mph 18.4 mph N/A   Overcast
6:55 PM 53.6 °F - 50.5 °F 89% 29.78 in 10.0 mi ENE 13.8 mph 19.6 mph N/A   Overcast
7:15 PM 54.3 °F - 51.3 °F 89% 29.77 in 10.0 mi ENE 11.5 mph 18.4 mph N/A   Overcast
7:35 PM 54.5 °F - 51.6 °F 90% 29.77 in 10.0 mi NE 10.4 mph - N/A Thunderstorm Overcast
7:55 PM 54.7 °F - 51.8 °F 90% 29.77 in 7.0 mi NE 11.5 mph - N/A Thunderstorm Overcast
8:15 PM 54.3 °F - 51.6 °F 91% 29.78 in 7.0 mi North 11.5 mph 19.6 mph N/A Rain Light Rain
8:35 PM 53.6 °F - 50.9 °F 91% 29.76 in 7.0 mi East 13.8 mph 28.8 mph N/A Thunderstorm Overcast
8:55 PM 53.6 °F - 51.3 °F 92% 29.78 in 7.0 mi NNE 9.2 mph 19.6 mph N/A Thunderstorm Overcast
9:15 PM 53.8 °F - 51.4 °F 92% 29.78 in 5.0 mi NNE 10.4 mph - N/A Rain , Thunderstorm Light Thunderstorms and Rain
9:55 PM 54.0 °F - 52.0 °F 93% 29.75 in 5.0 mi NE 15.0 mph 19.6 mph 0.06 in Thunderstorm Overcast
10:15 PM 54.5 °F - 52.5 °F 93% 29.73 in 5.0 mi ENE 13.8 mph 18.4 mph N/A   Overcast
10:35 PM 54.5 °F - 52.7 °F 94% 29.73 in 5.0 mi ENE 8.1 mph - N/A Thunderstorm Overcast
10:55 PM 54.3 °F - 52.3 °F 93% 29.71 in 4.0 mi ENE 9.2 mph - N/A Thunderstorm Overcast
11:15 PM 54.5 °F - 52.7 °F 94% 29.72 in 4.0 mi North 5.8 mph - N/A   Overcast
11:35 PM 54.5 °F - 52.7 °F 94% 29.69 in 4.0 mi ENE 5.8 mph - N/A   Overcast
11:55 PM 54.5 °F - 52.7 °F 94% 29.68 in 4.0 mi Calm Calm - N/A   Overcast